Terminal Aerodrome Forecast
Issued by NWS Memphis, TN

Home | Current Version | Previous Version | Text Only | Print | Product List | Glossary On
Versions: 1 2 3 4 5 6 7 8 9 10 11 12 13 14 15 16 17 18 19 20 21 22 23 24 25 26 27 28 29 30 31 32 33 34 35
000
FTUS44 KMEG 051506 AAB
TAFMEM
TAF AMD
KMEM 051506Z 0515/0612 19006KT P6SM SCT015 BKN030
     FM051700 23008KT P6SM VCTS SCT025 BKN040CB
     FM060000 19005KT P6SM SCT040 SCT250
     FM060600 20004KT P6SM SCT040=

USA.gov is the U.S. government's official web portal to all federal, state and local government web resources and services.